This is the latest recevied weather packets stored in our database for station/object N2OCK. If no packets are shown the sender has not sent any weather packets the latest 10 day(s).
| Time | Temp. | Humidity | Pressure | Rain* | Wind** | Luminosity | Snow |
|---|---|---|---|---|---|---|---|
| 1777584064 | 14.44° C | 78% | 1007 hPa | 0 mm | - | 46 W/m² | - |
| 1777583758 | 14.44° C | 78% | 1006.9 hPa | 0 mm | - | 60 W/m² | - |
| 1777583457 | 14.44° C | 78% | 1007.1 hPa | 0 mm | - | 64 W/m² | - |
| 1777583151 | 14.44° C | 78% | 1006.8 hPa | 0 mm | - | 71 W/m² | - |
| 1777582847 | 15° C | 78% | 1006.8 hPa | 0 mm | - | 92 W/m² | - |
| 1777582544 | 15° C | 78% | 1006.7 hPa | 0 mm | - | 99 W/m² | - |
| 1777582240 | 15° C | 77% | 1006.6 hPa | 0 mm | - | 88 W/m² | - |
| 1777581938 | 15° C | 77% | 1006.4 hPa | 0 mm | - | 116 W/m² | - |
| 1777581633 | 15° C | 77% | 1006.5 hPa | 0 mm | - | 173 W/m² | - |
| 1777581327 | 15.56° C | 77% | 1006.2 hPa | 0 mm | - | 200 W/m² | - |
| 1777581022 | 15° C | 78% | 1006.2 hPa | 0 mm | - | 231 W/m² | - |
| 1777580721 | 15° C | 78% | 1006.2 hPa | 0 mm | - | 187 W/m² | - |
| 1777580418 | 14.44° C | 79% | 1006.1 hPa | 0 mm | - | 235 W/m² | - |
| 1777580113 | 14.44° C | 80% | 1006.3 hPa | 0 mm | - | 248 W/m² | - |
| 1777579810 | 14.44° C | 79% | 1006.3 hPa | 0 mm | - | 243 W/m² | - |
| 1777579508 | 13.89° C | 80% | 1006.2 hPa | 0 mm | - | 229 W/m² | - |
| 1777579203 | 15° C | 78% | 1006.1 hPa | 0 mm | - | 248 W/m² | - |
| 1777578898 | 14.44° C | 79% | 1006.3 hPa | 0 mm | - | 320 W/m² | - |
| 1777578594 | 13.89° C | 82% | 1006.2 hPa | 0 mm | - | 304 W/m² | - |
| 1777578288 | 13.33° C | 84% | 1006.5 hPa | 0 mm | - | 250 W/m² | - |
| 1777577985 | 13.33° C | 84% | 1006.6 hPa | 0 mm | - | 143 W/m² | - |
| 1777577679 | 13.33° C | 84% | 1006.5 hPa | 0 mm | - | 147 W/m² | - |
| 1777577378 | 13.33° C | 84% | 1006.7 hPa | 0 mm | - | 188 W/m² | - |
| 1777577073 | 13.33° C | 84% | 1006.5 hPa | 0 mm | - | 162 W/m² | - |
| 1777576770 | 13.33° C | 84% | 1006.6 hPa | 0 mm | - | 181 W/m² | - |
* Rain latest hour (hover to see other rain measurements)
** Current wind speed in m/s (hover to see current wind gust speed)